"datetime","temp","dp","rain_mm","uv","solar","mb","wind_mph","gust_mph","windchill","rh"
"2018-10-14 00:00:00",17.7,15.5,0.0,0.0,0,1005.6,1,1,"",87
"2018-10-14 00:01:00",17.7,15.5,0.0,0.0,0,1005.6,1,1,"",87
"2018-10-14 00:02:00",17.7,15.5,0.0,0.0,0,1005.7,0,1,"",87
"2018-10-14 00:03:00",17.7,15.5,0.0,0.0,0,1005.8,0,1,"",87
"2018-10-14 00:04:00",17.7,15.5,0.0,0.0,0,1005.8,0,0,"",87
"2018-10-14 00:05:00",17.7,15.5,0.0,0.0,0,1005.7,0,0,"",87
"2018-10-14 00:06:00",17.7,15.5,0.0,0.0,0,1005.7,0,1,"",87
"2018-10-14 00:07:00",17.7,15.5,0.0,0.0,0,1005.7,0,0,"",87
"2018-10-14 00:08:00",17.7,15.5,0.0,0.0,0,1005.7,0,1,"",87
"2018-10-14 00:09:00",17.7,15.5,0.0,0.0,0,1005.7,0,0,"",87
"2018-10-14 00:10:00",17.6,15.4,0.0,0.0,0,1005.8,0,0,"",87
"2018-10-14 00:11:00",17.6,15.4,0.0,0.0,0,1005.8,0,0,"",87
"2018-10-14 00:12:00",17.6,15.4,0.0,0.0,0,1005.8,0,2,"",87
"2018-10-14 00:13:00",17.6,15.4,0.0,0.0,0,1005.8,0,1,"",87
"2018-10-14 00:14:00",17.6,15.4,0.0,0.0,0,1005.8,1,2,"",87
"2018-10-14 00:15:00",17.6,15.4,0.0,0.0,0,1005.7,2,4,"",87
"2018-10-14 00:16:00",17.6,15.4,0.0,0.0,0,1005.7,2,3,"",87
"2018-10-14 00:17:00",17.6,15.4,0.0,0.0,0,1005.7,1,1,"",87
"2018-10-14 00:18:00",17.6,15.4,0.0,0.0,0,1005.7,0,2,"",87
"2018-10-14 00:19:00",17.5,15.3,0.0,0.0,0,1005.6,0,1,"",87
"2018-10-14 00:20:00",17.5,15.3,0.0,0.0,0,1005.6,1,1,"",87
"2018-10-14 00:21:00",17.5,15.3,0.0,0.0,0,1005.6,0,1,"",87
"2018-10-14 00:22:00",17.5,15.3,0.0,0.0,0,1005.7,1,4,"",87
"2018-10-14 00:23:00",17.5,15.3,0.0,0.0,0,1005.6,2,3,"",87
"2018-10-14 00:24:00",17.4,15.2,0.0,0.0,0,1005.7,0,1,"",87
"2018-10-14 00:25:00",17.4,15.2,0.0,0.0,0,1005.7,0,0,"",87
"2018-10-14 00:26:00",17.4,15.2,0.0,0.0,0,1005.8,0,1,"",87
"2018-10-14 00:27:00",17.4,15.2,0.0,0.0,0,1005.8,1,1,"",87
"2018-10-14 00:28:00",17.4,15.2,0.0,0.0,0,1005.8,1,3,"",87
"2018-10-14 00:29:00",17.4,15.2,0.0,0.0,0,1005.8,0,0,"",87
"2018-10-14 00:30:00",17.4,15.2,0.0,0.0,0,1005.9,0,0,"",87
"2018-10-14 00:31:00",17.4,15.2,0.0,0.0,0,1005.9,0,0,"",87
"2018-10-14 00:32:00",17.4,15.2,0.0,0.0,0,1005.8,0,0,"",87
"2018-10-14 00:33:00",17.3,15.1,0.0,0.0,0,1005.9,0,0,"",87
"2018-10-14 00:34:00",17.3,15.1,0.0,0.0,0,1005.9,1,2,"",87
"2018-10-14 00:35:00",17.3,15.1,0.0,0.0,0,1006.0,2,4,"",87
"2018-10-14 00:36:00",17.3,15.1,0.0,0.0,0,1006.2,3,5,"",87
"2018-10-14 00:37:00",17.3,15.1,0.0,0.0,0,1006.1,3,4,"",87
"2018-10-14 00:38:00",17.3,15.3,0.0,0.0,0,1006.2,2,5,"",88
"2018-10-14 00:39:00",17.3,15.3,0.0,0.0,0,1006.2,1,1,"",88
"2018-10-14 00:40:00",17.3,15.3,0.0,0.0,0,1006.2,1,2,"",88
"2018-10-14 00:41:00",17.3,15.3,0.0,0.0,0,1006.2,2,5,"",88
"2018-10-14 00:42:00",17.3,15.3,0.0,0.0,0,1006.1,1,3,"",88
"2018-10-14 00:43:00",17.3,15.3,0.0,0.0,0,1006.2,1,3,"",88
"2018-10-14 00:44:00",17.2,15.2,0.0,0.0,0,1006.2,1,2,"",88
"2018-10-14 00:45:00",17.2,15.2,0.0,0.0,0,1006.2,2,4,"",88
"2018-10-14 00:46:00",17.2,15.2,0.0,0.0,0,1006.2,1,3,"",88
"2018-10-14 00:47:00",17.2,15.2,0.0,0.0,0,1006.1,1,2,"",88
"2018-10-14 00:48:00",17.2,15.2,0.0,0.0,0,1006.1,1,3,"",88
"2018-10-14 00:49:00",17.1,15.1,0.0,0.0,0,1006.2,1,2,"",88
"2018-10-14 00:50:00",17.1,15.1,0.0,0.0,0,1006.2,1,3,"",88
"2018-10-14 00:51:00",17.1,14.9,0.0,0.0,0,1006.1,0,1,"",87
"2018-10-14 00:52:00",17.1,14.9,0.0,0.0,0,1006.1,0,2,"",87
"2018-10-14 00:53:00",17.0,14.8,0.0,0.0,0,1006.0,1,2,"",87
"2018-10-14 00:54:00",16.9,14.7,0.0,0.0,0,1005.8,1,3,"",87
"2018-10-14 00:55:00",16.8,14.6,0.0,0.0,0,1005.7,1,3,"",87
"2018-10-14 00:56:00",16.8,14.6,0.0,0.0,0,1005.7,1,1,"",87
"2018-10-14 00:57:00",16.8,14.6,0.0,0.0,0,1005.8,0,0,"",87
"2018-10-14 00:58:00",16.8,14.6,0.2,0.0,0,1005.7,0,0,"",87
"2018-10-14 00:59:00",16.7,14.5,0.2,0.0,0,1005.8,0,0,"",87
"2018-10-14 01:00:00",16.7,14.5,0.2,0.0,0,1005.7,0,0,"",87
"2018-10-14 01:01:00",16.7,14.5,0.2,0.0,0,1005.7,0,0,"",87
"2018-10-14 01:02:00",16.7,14.5,0.2,0.0,0,1005.7,0,0,"",87
"2018-10-14 01:03:00",16.6,14.4,0.2,0.0,0,1005.7,0,0,"",87
"2018-10-14 01:04:00",16.6,14.4,0.2,0.0,0,1005.8,0,0,"",87
"2018-10-14 01:05:00",16.6,14.4,0.2,0.0,0,1005.9,0,0,"",87
"2018-10-14 01:06:00",16.6,14.4,0.2,0.0,0,1005.9,0,0,"",87
"2018-10-14 01:07:00",16.5,14.3,0.2,0.0,0,1006.0,0,0,"",87
"2018-10-14 01:08:00",16.5,14.3,0.2,0.0,0,1006.0,0,0,"",87
"2018-10-14 01:09:00",16.4,14.2,0.2,0.0,0,1006.0,0,0,"",87
"2018-10-14 01:10:00",16.4,14.2,0.2,0.0,0,1005.9,0,0,"",87
"2018-10-14 01:11:00",16.4,14.2,0.2,0.0,0,1005.9,0,0,"",87
"2018-10-14 01:12:00",16.3,14.1,0.2,0.0,0,1006.0,0,0,"",87
"2018-10-14 01:13:00",16.3,14.1,0.2,0.0,0,1006.0,0,0,"",87
"2018-10-14 01:14:00",16.3,14.1,0.2,0.0,0,1006.1,0,0,"",87
"2018-10-14 01:15:00",16.3,14.1,0.2,0.0,0,1006.1,0,0,"",87
"2018-10-14 01:16:00",16.3,14.1,0.2,0.0,0,1006.1,1,2,"",87
"2018-10-14 01:17:00",16.2,14.0,0.2,0.0,0,1006.1,0,1,"",87
"2018-10-14 01:18:00",16.2,14.0,0.2,0.0,0,1006.0,0,0,"",87
"2018-10-14 01:19:00",16.2,14.0,0.2,0.0,0,1006.0,0,1,"",87
"2018-10-14 01:20:00",16.2,14.0,0.2,0.0,0,1005.9,0,1,"",87
"2018-10-14 01:21:00",16.1,13.9,0.2,0.0,0,1005.9,0,2,"",87
"2018-10-14 01:22:00",16.1,13.9,0.2,0.0,0,1006.0,0,2,"",87
"2018-10-14 01:23:00",16.1,13.9,0.2,0.0,0,1006.0,0,2,"",87
"2018-10-14 01:24:00",16.1,13.9,0.2,0.0,0,1006.0,1,2,"",87
"2018-10-14 01:25:00",16.0,13.8,0.2,0.0,0,1006.0,0,1,"",87
"2018-10-14 01:26:00",16.0,13.8,0.2,0.0,0,1005.9,1,2,"",87
"2018-10-14 01:27:00",16.0,13.8,0.2,0.0,0,1005.9,2,2,"",87
"2018-10-14 01:28:00",15.9,13.7,0.2,0.0,0,1005.9,1,2,"",87
"2018-10-14 01:29:00",15.9,13.7,0.2,0.0,0,1005.9,0,1,"",87
"2018-10-14 01:30:00",15.9,13.7,0.2,0.0,0,1005.9,0,0,"",87
"2018-10-14 01:31:00",15.9,13.9,0.2,0.0,0,1005.9,0,0,"",88
"2018-10-14 01:32:00",15.9,13.7,0.2,0.0,0,1005.8,0,0,"",87
"2018-10-14 01:33:00",15.8,13.6,0.2,0.0,0,1005.9,0,0,"",87
"2018-10-14 01:34:00",15.8,13.6,0.2,0.0,0,1005.9,0,0,"",87
"2018-10-14 01:35:00",15.8,13.6,0.2,0.0,0,1005.9,0,0,"",87
"2018-10-14 01:36:00",15.8,13.6,0.2,0.0,0,1005.8,0,0,"",87
"2018-10-14 01:37:00",15.8,13.6,0.2,0.0,0,1005.8,0,0,"",87
"2018-10-14 01:38:00",15.8,13.6,0.2,0.0,0,1005.8,0,0,"",87
"2018-10-14 01:39:00",15.8,13.6,0.2,0.0,0,1005.8,0,0,"",87
"2018-10-14 01:40:00",15.7,13.5,0.2,0.0,0,1005.7,0,0,"",87
"2018-10-14 01:41:00",15.7,13.5,0.2,0.0,0,1005.7,0,1,"",87
"2018-10-14 01:42:00",15.7,13.5,0.2,0.0,0,1005.7,0,0,"",87
"2018-10-14 01:43:00",15.7,13.7,0.2,0.0,0,1005.7,0,0,"",88
"2018-10-14 01:44:00",15.7,13.7,0.2,0.0,0,1005.7,0,0,"",88
"2018-10-14 01:45:00",15.6,13.6,0.2,0.0,0,1005.7,0,0,"",88
"2018-10-14 01:46:00",15.6,13.6,0.2,0.0,0,1005.7,0,0,"",88
"2018-10-14 01:47:00",15.6,13.6,0.2,0.0,0,1005.7,0,0,"",88
"2018-10-14 01:48:00",15.6,13.6,0.2,0.0,0,1005.7,0,0,"",88
"2018-10-14 01:49:00",15.6,13.6,0.2,0.0,0,1005.7,0,1,"",88
"2018-10-14 01:50:00",15.6,13.6,0.2,0.0,0,1005.7,0,0,"",88
"2018-10-14 01:51:00",15.6,13.6,0.2,0.0,0,1005.7,0,0,"",88
"2018-10-14 01:52:00",15.5,13.5,0.2,0.0,0,1005.7,0,0,"",88
"2018-10-14 01:53:00",15.5,13.5,0.2,0.0,0,1005.6,0,0,"",88
"2018-10-14 01:54:00",15.5,13.5,0.2,0.0,0,1005.6,0,0,"",88
"2018-10-14 01:55:00",15.4,13.4,0.2,0.0,0,1005.5,0,0,"",88
"2018-10-14 01:56:00",15.4,13.4,0.2,0.0,0,1005.4,0,1,"",88
"2018-10-14 01:57:00",15.4,13.4,0.2,0.0,0,1005.4,0,1,"",88
"2018-10-14 01:58:00",15.4,13.4,0.2,0.0,0,1005.4,0,0,"",88
"2018-10-14 01:59:00",15.4,13.4,0.2,0.0,0,1005.5,0,1,"",88
"2018-10-14 02:00:00",15.4,13.4,0.2,0.0,0,1005.4,0,0,"",88
"2018-10-14 02:01:00",15.4,13.4,0.2,0.0,0,1005.5,0,0,"",88
"2018-10-14 02:02:00",15.3,13.3,0.2,0.0,0,1005.4,0,0,"",88
"2018-10-14 02:03:00",15.3,13.3,0.2,0.0,0,1005.4,0,0,"",88
"2018-10-14 02:04:00",15.3,13.3,0.2,0.0,0,1005.4,0,0,"",88
"2018-10-14 02:05:00",15.3,13.3,0.2,0.0,0,1005.4,0,1,"",88
"2018-10-14 02:06:00",15.3,13.3,0.2,0.0,0,1005.5,0,1,"",88
"2018-10-14 02:07:00",15.3,13.3,0.2,0.0,0,1005.4,0,1,"",88
"2018-10-14 02:08:00",15.3,13.3,0.2,0.0,0,1005.4,0,0,"",88
"2018-10-14 02:09:00",15.3,13.3,0.2,0.0,0,1005.5,0,0,"",88
"2018-10-14 02:10:00",15.3,13.3,0.2,0.0,0,1005.5,0,0,"",88
"2018-10-14 02:11:00",15.2,13.2,0.2,0.0,0,1005.5,0,0,"",88
"2018-10-14 02:12:00",15.2,13.2,0.2,0.0,0,1005.5,0,0,"",88
"2018-10-14 02:13:00",15.2,13.2,0.2,0.0,0,1005.5,0,0,"",88
"2018-10-14 02:14:00",15.2,13.2,0.2,0.0,0,1005.5,0,0,"",88
"2018-10-14 02:15:00",15.2,13.2,0.2,0.0,0,1005.5,0,0,"",88
"2018-10-14 02:16:00",15.2,13.2,0.2,0.0,0,1005.5,0,0,"",88
"2018-10-14 02:17:00",15.2,13.2,0.2,0.0,0,1005.5,0,0,"",88
"2018-10-14 02:18:00",15.2,13.2,0.2,0.0,0,1005.5,0,0,"",88
"2018-10-14 02:19:00",15.2,13.2,0.2,0.0,0,1005.5,0,0,"",88
"2018-10-14 02:20:00",15.2,13.2,0.2,0.0,0,1005.5,0,0,"",88
"2018-10-14 02:21:00",15.1,13.1,0.2,0.0,0,1005.5,0,0,"",88
"2018-10-14 02:22:00",15.1,13.1,0.2,0.0,0,1005.5,0,0,"",88
"2018-10-14 02:23:00",15.1,13.1,0.2,0.0,0,1005.5,0,0,"",88
"2018-10-14 02:24:00",15.1,13.1,0.2,0.0,0,1005.4,0,0,"",88
"2018-10-14 02:25:00",15.1,13.1,0.2,0.0,0,1005.3,0,0,"",88
"2018-10-14 02:26:00",15.1,13.1,0.2,0.0,0,1005.3,0,0,"",88
"2018-10-14 02:27:00",15.1,13.1,0.2,0.0,0,1005.3,0,0,"",88
"2018-10-14 02:28:00",15.1,13.1,0.2,0.0,0,1005.3,0,0,"",88
"2018-10-14 02:29:00",15.1,13.1,0.2,0.0,0,1005.3,0,0,"",88
"2018-10-14 02:30:00",15.1,13.1,0.2,0.0,0,1005.4,0,0,"",88
"2018-10-14 02:31:00",15.0,13.0,0.2,0.0,0,1005.4,0,0,"",88
"2018-10-14 02:32:00",15.0,13.0,0.2,0.0,0,1005.4,0,0,"",88
"2018-10-14 02:33:00",15.0,13.0,0.2,0.0,0,1005.4,0,0,"",88
"2018-10-14 02:34:00",15.0,13.0,0.2,0.0,0,1005.3,0,0,"",88
"2018-10-14 02:35:00",15.0,13.0,0.2,0.0,0,1005.3,0,0,"",88
"2018-10-14 02:36:00",15.0,13.0,0.2,0.0,0,1005.3,0,0,"",88
"2018-10-14 02:37:00",14.9,12.9,0.2,0.0,0,1005.3,0,0,"",88
"2018-10-14 02:38:00",14.9,12.9,0.2,0.0,0,1005.3,0,0,"",88
"2018-10-14 02:39:00",14.9,12.9,0.2,0.0,0,1005.3,0,0,"",88
"2018-10-14 02:40:00",14.9,12.9,0.2,0.0,0,1005.3,0,0,"",88
"2018-10-14 02:41:00",14.9,12.9,0.2,0.0,0,1005.3,0,0,"",88
"2018-10-14 02:42:00",14.9,12.9,0.2,0.0,0,1005.2,0,0,"",88
"2018-10-14 02:43:00",14.9,12.9,0.2,0.0,0,1005.2,0,0,"",88
"2018-10-14 02:44:00",14.9,12.9,0.2,0.0,0,1005.3,0,0,"",88
"2018-10-14 02:45:00",14.9,12.9,0.2,0.0,0,1005.3,0,0,"",88
"2018-10-14 02:46:00",14.8,12.8,0.2,0.0,0,1005.2,0,0,"",88
"2018-10-14 02:47:00",14.9,12.9,0.2,0.0,0,1005.2,0,0,"",88
"2018-10-14 02:48:00",14.8,12.8,0.2,0.0,0,1005.3,0,0,"",88
"2018-10-14 02:49:00",14.8,12.8,0.2,0.0,0,1005.3,0,0,"",88
"2018-10-14 02:50:00",14.8,12.8,0.2,0.0,0,1005.3,0,0,"",88
"2018-10-14 02:51:00",14.8,12.8,0.2,0.0,0,1005.2,0,0,"",88
"2018-10-14 02:52:00",14.8,12.8,0.2,0.0,0,1005.2,0,0,"",88
"2018-10-14 02:53:00",14.8,12.8,0.2,0.0,0,1005.3,0,0,"",88
"2018-10-14 02:54:00",14.8,12.8,0.2,0.0,0,1005.2,0,0,"",88
"2018-10-14 02:55:00",14.8,12.8,0.2,0.0,0,1005.2,0,0,"",88
"2018-10-14 02:56:00",14.8,12.8,0.2,0.0,0,1005.2,0,0,"",88
"2018-10-14 02:57:00",14.8,12.8,0.2,0.0,0,1005.1,0,0,"",88
"2018-10-14 02:58:00",14.8,12.8,0.2,0.0,0,1005.2,0,0,"",88
"2018-10-14 02:59:00",14.7,12.7,0.2,0.0,0,1005.2,0,0,"",88
"2018-10-14 03:00:00",14.7,12.7,0.2,0.0,0,1005.1,0,0,"",88
"2018-10-14 03:01:00",14.7,12.7,0.2,0.0,0,1005.2,0,0,"",88
"2018-10-14 03:02:00",14.7,12.7,0.2,0.0,0,1005.1,0,0,"",88
"2018-10-14 03:03:00",14.7,12.7,0.2,0.0,0,1005.2,0,0,"",88
"2018-10-14 03:04:00",14.7,12.7,0.2,0.0,0,1005.2,0,0,"",88
"2018-10-14 03:05:00",14.7,12.7,0.2,0.0,0,1005.2,0,0,"",88
"2018-10-14 03:06:00",14.7,12.7,0.2,0.0,0,1005.2,0,0,"",88
"2018-10-14 03:07:00",14.7,12.7,0.2,0.0,0,1005.3,0,0,"",88
"2018-10-14 03:08:00",14.7,12.7,0.2,0.0,0,1005.3,0,0,"",88
"2018-10-14 03:09:00",14.7,12.7,0.2,0.0,0,1005.2,0,0,"",88
"2018-10-14 03:10:00",14.7,12.7,0.2,0.0,0,1005.2,0,0,"",88
"2018-10-14 03:11:00",14.7,12.7,0.2,0.0,0,1005.2,0,0,"",88
"2018-10-14 03:12:00",14.7,12.7,0.2,0.0,0,1005.2,0,0,"",88
"2018-10-14 03:13:00",14.7,12.7,0.2,0.0,0,1005.1,0,0,"",88
"2018-10-14 03:14:00",14.6,12.6,0.2,0.0,0,1005.2,0,0,"",88
"2018-10-14 03:15:00",14.6,12.6,0.2,0.0,0,1005.2,0,0,"",88
"2018-10-14 03:16:00",14.6,12.6,0.2,0.0,0,1005.2,0,0,"",88
"2018-10-14 03:17:00",14.6,12.6,0.2,0.0,0,1005.2,0,0,"",88
"2018-10-14 03:18:00",14.6,12.6,0.2,0.0,0,1005.2,0,0,"",88
"2018-10-14 03:19:00",14.6,12.6,0.2,0.0,0,1005.3,0,0,"",88
"2018-10-14 03:20:00",14.6,12.6,0.2,0.0,0,1005.3,0,0,"",88
"2018-10-14 03:21:00",14.6,12.6,0.2,0.0,0,1005.3,0,0,"",88
"2018-10-14 03:22:00",14.6,12.6,0.2,0.0,0,1005.4,0,0,"",88
"2018-10-14 03:23:00",14.6,12.8,0.2,0.0,0,1005.4,0,0,"",89
"2018-10-14 03:24:00",14.6,12.8,0.2,0.0,0,1005.3,0,0,"",89
"2018-10-14 03:25:00",14.6,12.8,0.2,0.0,0,1005.2,0,0,"",89
"2018-10-14 03:26:00",14.6,12.8,0.2,0.0,0,1005.2,0,0,"",89
"2018-10-14 03:27:00",14.6,12.8,0.2,0.0,0,1005.3,0,0,"",89
"2018-10-14 03:28:00",14.6,12.8,0.2,0.0,0,1005.3,0,0,"",89
"2018-10-14 03:29:00",14.6,12.8,0.2,0.0,0,1005.3,0,0,"",89
"2018-10-14 03:30:00",14.6,12.8,0.2,0.0,0,1005.3,0,0,"",89
"2018-10-14 03:31:00",14.6,12.8,0.2,0.0,0,1005.3,0,0,"",89
"2018-10-14 03:32:00",14.6,12.8,0.2,0.0,0,1005.2,0,0,"",89
"2018-10-14 03:33:00",14.6,12.8,0.2,0.0,0,1005.2,0,0,"",89
"2018-10-14 03:34:00",14.5,12.7,0.2,0.0,0,1005.2,0,0,"",89
"2018-10-14 03:35:00",14.5,12.7,0.2,0.0,0,1005.1,0,0,"",89
"2018-10-14 03:36:00",14.5,12.7,0.2,0.0,0,1005.1,0,0,"",89
"2018-10-14 03:37:00",14.5,12.7,0.2,0.0,0,1005.2,0,0,"",89
"2018-10-14 03:38:00",14.5,12.7,0.2,0.0,0,1005.2,0,0,"",89
"2018-10-14 03:39:00",14.5,12.7,0.2,0.0,0,1005.2,0,0,"",89
"2018-10-14 03:40:00",14.5,12.7,0.2,0.0,0,1005.2,0,0,"",89
"2018-10-14 03:41:00",14.5,12.7,0.2,0.0,0,1005.2,0,0,"",89
"2018-10-14 03:42:00",14.5,12.7,0.2,0.0,0,1005.2,0,0,"",89
"2018-10-14 03:43:00",14.5,12.7,0.2,0.0,0,1005.2,0,0,"",89
"2018-10-14 03:44:00",14.5,12.7,0.2,0.0,0,1005.2,0,0,"",89
"2018-10-14 03:45:00",14.5,12.7,0.2,0.0,0,1005.3,0,0,"",89
"2018-10-14 03:46:00",14.5,12.7,0.2,0.0,0,1005.3,0,0,"",89
"2018-10-14 03:47:00",14.4,12.6,0.2,0.0,0,1005.3,0,0,"",89
"2018-10-14 03:48:00",14.4,12.6,0.2,0.0,0,1005.2,0,0,"",89
"2018-10-14 03:49:00",14.4,12.6,0.2,0.0,0,1005.3,0,0,"",89
"2018-10-14 03:50:00",14.4,12.6,0.2,0.0,0,1005.2,0,0,"",89
"2018-10-14 03:51:00",14.4,12.6,0.2,0.0,0,1005.2,0,0,"",89
"2018-10-14 03:52:00",14.4,12.6,0.2,0.0,0,1005.2,0,0,"",89
"2018-10-14 03:53:00",14.4,12.6,0.2,0.0,0,1005.2,0,0,"",89
"2018-10-14 03:54:00",14.4,12.6,0.2,0.0,0,1005.2,0,0,"",89
"2018-10-14 03:55:00",14.4,12.6,0.2,0.0,0,1005.3,0,1,"",89
"2018-10-14 03:56:00",14.4,12.6,0.2,0.0,0,1005.2,0,0,"",89
"2018-10-14 03:57:00",14.4,12.6,0.2,0.0,0,1005.2,0,0,"",89
"2018-10-14 03:58:00",14.4,12.6,0.2,0.0,0,1005.2,0,0,"",89
"2018-10-14 03:59:00",14.4,12.6,0.2,0.0,0,1005.1,0,0,"",89
"2018-10-14 04:00:00",14.4,12.6,0.2,0.0,0,1005.1,0,0,"",89
"2018-10-14 04:01:00",14.4,12.6,0.2,0.0,0,1005.0,0,0,"",89
"2018-10-14 04:02:00",14.4,12.6,0.2,0.0,0,1005.0,0,0,"",89
"2018-10-14 04:03:00",14.4,12.6,0.2,0.0,0,1005.0,0,0,"",89
"2018-10-14 04:04:00",14.4,12.6,0.2,0.0,0,1005.0,0,0,"",89
"2018-10-14 04:05:00",14.4,12.6,0.2,0.0,0,1005.0,0,0,"",89
"2018-10-14 04:06:00",14.4,12.6,0.2,0.0,0,1004.9,0,0,"",89
"2018-10-14 04:07:00",14.4,12.6,0.2,0.0,0,1004.9,0,0,"",89
"2018-10-14 04:08:00",14.4,12.6,0.4,0.0,0,1004.8,0,0,"",89
"2018-10-14 04:09:00",14.4,12.6,0.4,0.0,0,1004.8,0,0,"",89
"2018-10-14 04:10:00",14.4,12.6,0.4,0.0,0,1004.8,0,0,"",89
"2018-10-14 04:11:00",14.4,12.6,0.4,0.0,0,1004.8,0,0,"",89
"2018-10-14 04:12:00",14.4,12.6,0.4,0.0,0,1004.8,0,0,"",89
"2018-10-14 04:13:00",14.4,12.6,0.4,0.0,0,1004.8,0,0,"",89
"2018-10-14 04:14:00",14.4,12.6,0.4,0.0,0,1004.8,0,0,"",89
"2018-10-14 04:15:00",14.4,12.6,0.4,0.0,0,1004.8,0,0,"",89
"2018-10-14 04:16:00",14.4,12.6,0.4,0.0,0,1004.9,0,0,"",89
"2018-10-14 04:17:00",14.4,12.6,0.4,0.0,0,1004.9,0,0,"",89
"2018-10-14 04:18:00",14.4,12.6,0.4,0.0,0,1004.9,0,0,"",89
"2018-10-14 04:19:00",14.4,12.6,0.4,0.0,0,1005.0,0,0,"",89
"2018-10-14 04:20:00",14.4,12.6,0.4,0.0,0,1005.0,0,0,"",89
"2018-10-14 04:21:00",14.4,12.6,0.4,0.0,0,1005.0,0,0,"",89
"2018-10-14 04:22:00",14.3,12.5,0.4,0.0,0,1005.1,0,0,"",89
"2018-10-14 04:23:00",14.4,12.6,0.4,0.0,0,1005.1,0,0,"",89
"2018-10-14 04:24:00",14.4,12.6,0.4,0.0,0,1005.2,0,0,"",89
"2018-10-14 04:25:00",14.3,12.5,0.4,0.0,0,1005.2,0,0,"",89
"2018-10-14 04:26:00",14.3,12.5,0.4,0.0,0,1005.1,0,0,"",89
"2018-10-14 04:27:00",14.3,12.5,0.4,0.0,0,1005.1,0,0,"",89
"2018-10-14 04:28:00",14.3,12.5,0.4,0.0,0,1005.1,0,0,"",89
"2018-10-14 04:29:00",14.3,12.5,0.4,0.0,0,1005.1,0,0,"",89
"2018-10-14 04:30:00",14.3,12.5,0.4,0.0,0,1005.1,0,0,"",89
"2018-10-14 04:31:00",14.3,12.5,0.4,0.0,0,1005.1,0,0,"",89
"2018-10-14 04:32:00",14.3,12.5,0.4,0.0,0,1005.0,0,0,"",89
"2018-10-14 04:33:00",14.3,12.5,0.4,0.0,0,1005.0,0,0,"",89
"2018-10-14 04:34:00",14.3,12.5,0.4,0.0,0,1004.9,0,0,"",89
"2018-10-14 04:35:00",14.3,12.5,0.4,0.0,0,1004.8,0,0,"",89
"2018-10-14 04:36:00",14.3,12.5,0.4,0.0,0,1004.8,0,0,"",89
"2018-10-14 04:37:00",14.3,12.5,0.4,0.0,0,1004.8,0,0,"",89
"2018-10-14 04:38:00",14.3,12.5,0.4,0.0,0,1004.8,0,0,"",89
"2018-10-14 04:39:00",14.3,12.5,0.4,0.0,0,1004.8,0,0,"",89
"2018-10-14 04:40:00",14.3,12.5,0.4,0.0,0,1004.9,0,0,"",89
"2018-10-14 04:41:00",14.3,12.5,0.4,0.0,0,1004.8,0,0,"",89
"2018-10-14 04:42:00",14.3,12.5,0.4,0.0,0,1004.9,0,0,"",89
"2018-10-14 04:43:00",14.3,12.5,0.4,0.0,0,1004.8,0,0,"",89
"2018-10-14 04:44:00",14.2,12.4,0.4,0.0,0,1004.8,0,0,"",89
"2018-10-14 04:45:00",14.2,12.4,0.4,0.0,0,1004.8,0,0,"",89
"2018-10-14 04:46:00",14.2,12.4,0.6,0.0,0,1004.8,0,0,"",89
"2018-10-14 04:47:00",14.2,12.4,0.6,0.0,0,1004.7,0,0,"",89
"2018-10-14 04:48:00",14.2,12.4,0.6,0.0,0,1004.7,0,0,"",89
"2018-10-14 04:49:00",14.2,12.4,0.6,0.0,0,1004.7,0,0,"",89
"2018-10-14 04:50:00",14.2,12.4,0.6,0.0,0,1004.6,0,0,"",89
"2018-10-14 04:51:00",14.2,12.4,0.6,0.0,0,1004.7,0,0,"",89
"2018-10-14 04:52:00",14.2,12.4,0.6,0.0,0,1004.6,0,0,"",89
"2018-10-14 04:53:00",14.2,12.4,0.6,0.0,0,1004.6,0,0,"",89
"2018-10-14 04:54:00",14.2,12.4,0.6,0.0,0,1004.5,0,0,"",89
"2018-10-14 04:55:00",14.2,12.4,0.6,0.0,0,1004.4,0,0,"",89
"2018-10-14 04:56:00",14.2,12.4,0.6,0.0,0,1004.5,0,0,"",89
"2018-10-14 04:57:00",14.2,12.4,0.6,0.0,0,1004.5,0,0,"",89
"2018-10-14 04:58:00",14.2,12.4,0.6,0.0,0,1004.6,0,0,"",89
"2018-10-14 04:59:00",14.2,12.4,0.6,0.0,0,1004.7,0,0,"",89
"2018-10-14 05:00:00",14.2,12.4,0.6,0.0,0,1004.7,0,0,"",89
"2018-10-14 05:01:00",14.2,12.4,0.6,0.0,0,1004.7,0,0,"",89
"2018-10-14 05:02:00",14.2,12.4,0.6,0.0,0,1004.7,0,0,"",89
"2018-10-14 05:03:00",14.1,12.3,0.6,0.0,0,1004.7,0,0,"",89
"2018-10-14 05:04:00",14.1,12.3,0.6,0.0,0,1004.6,0,0,"",89
"2018-10-14 05:05:00",14.1,12.3,0.6,0.0,0,1004.6,0,0,"",89
"2018-10-14 05:06:00",14.1,12.3,0.6,0.0,0,1004.6,0,0,"",89
"2018-10-14 05:07:00",14.1,12.3,0.6,0.0,0,1004.6,0,0,"",89
"2018-10-14 05:08:00",14.1,12.3,0.6,0.0,0,1004.5,0,0,"",89
"2018-10-14 05:09:00",14.1,12.3,0.6,0.0,0,1004.5,0,0,"",89
"2018-10-14 05:10:00",14.1,12.3,0.6,0.0,0,1004.5,0,0,"",89
"2018-10-14 05:11:00",14.1,12.3,0.6,0.0,0,1004.4,0,0,"",89
"2018-10-14 05:12:00",14.1,12.3,0.6,0.0,0,1004.4,0,0,"",89
"2018-10-14 05:13:00",14.1,12.3,0.6,0.0,0,1004.4,0,0,"",89
"2018-10-14 05:14:00",14.1,12.3,0.6,0.0,0,1004.4,0,0,"",89
"2018-10-14 05:15:00",14.1,12.3,0.6,0.0,0,1004.4,0,0,"",89
"2018-10-14 05:16:00",14.1,12.3,0.6,0.0,0,1004.4,0,0,"",89
"2018-10-14 05:17:00",14.1,12.3,0.6,0.0,0,1004.4,0,0,"",89
"2018-10-14 05:18:00",14.1,12.3,0.6,0.0,0,1004.4,0,0,"",89
"2018-10-14 05:19:00",14.0,12.2,0.6,0.0,0,1004.3,0,0,"",89
"2018-10-14 05:20:00",14.0,12.2,0.6,0.0,0,1004.3,0,0,"",89
"2018-10-14 05:21:00",14.0,12.2,0.6,0.0,0,1004.2,0,0,"",89
"2018-10-14 05:22:00",14.0,12.2,0.6,0.0,0,1004.1,0,0,"",89
"2018-10-14 05:23:00",14.0,12.2,0.6,0.0,0,1004.1,0,0,"",89
"2018-10-14 05:24:00",13.9,12.1,0.6,0.0,0,1004.1,0,0,"",89
"2018-10-14 05:25:00",13.9,12.1,0.6,0.0,0,1004.1,0,0,"",89
"2018-10-14 05:26:00",13.9,12.1,0.6,0.0,0,1004.1,0,0,"",89
"2018-10-14 05:27:00",13.9,12.1,0.6,0.0,0,1004.1,0,0,"",89
"2018-10-14 05:28:00",13.9,12.1,0.6,0.0,0,1004.1,0,0,"",89
"2018-10-14 05:29:00",13.9,12.1,0.8,0.0,0,1004.2,0,0,"",89
"2018-10-14 05:30:00",13.9,12.1,0.8,0.0,0,1004.2,0,0,"",89
"2018-10-14 05:31:00",13.9,12.1,0.8,0.0,0,1004.2,0,0,"",89
"2018-10-14 05:32:00",13.8,12.0,0.8,0.0,0,1004.2,0,0,"",89
"2018-10-14 05:33:00",13.8,12.0,0.8,0.0,0,1004.2,0,0,"",89
"2018-10-14 05:34:00",13.8,12.0,0.8,0.0,0,1004.2,0,0,"",89
"2018-10-14 05:35:00",13.8,12.0,0.8,0.0,0,1004.2,0,0,"",89
"2018-10-14 05:36:00",13.8,12.0,0.8,0.0,0,1004.2,0,0,"",89
"2018-10-14 05:37:00",13.8,12.0,0.8,0.0,0,1004.2,0,0,"",89
"2018-10-14 05:38:00",13.8,12.0,0.8,0.0,0,1004.2,0,0,"",89
"2018-10-14 05:39:00",13.8,12.0,0.8,0.0,0,1004.2,0,0,"",89
"2018-10-14 05:40:00",13.8,12.0,0.8,0.0,0,1004.1,0,0,"",89
"2018-10-14 05:41:00",13.8,12.0,0.8,0.0,0,1004.1,0,0,"",89
"2018-10-14 05:42:00",13.7,11.9,0.8,0.0,0,1004.1,0,0,"",89
"2018-10-14 05:43:00",13.7,11.9,0.8,0.0,0,1004.1,0,0,"",89
"2018-10-14 05:44:00",13.7,11.9,0.8,0.0,0,1004.1,0,0,"",89
"2018-10-14 05:45:00",13.7,11.9,0.8,0.0,0,1004.1,0,0,"",89
"2018-10-14 05:46:00",13.7,11.9,0.8,0.0,0,1004.1,0,0,"",89
"2018-10-14 05:47:00",13.7,11.9,0.8,0.0,0,1004.1,0,0,"",89
"2018-10-14 05:48:00",13.7,11.9,0.8,0.0,0,1004.0,0,0,"",89
"2018-10-14 05:49:00",13.7,11.9,0.8,0.0,0,1004.1,0,0,"",89
"2018-10-14 05:50:00",13.7,11.9,1.0,0.0,0,1004.0,0,0,"",89
"2018-10-14 05:51:00",13.7,11.9,1.0,0.0,0,1004.0,0,0,"",89
"2018-10-14 05:52:00",13.6,11.8,1.0,0.0,0,1004.0,0,0,"",89
"2018-10-14 05:53:00",13.6,11.8,1.2,0.0,0,1004.0,0,0,"",89
"2018-10-14 05:54:00",13.6,11.8,1.2,0.0,0,1003.9,0,0,"",89
"2018-10-14 05:55:00",13.6,11.8,1.4,0.0,0,1004.0,0,0,"",89
"2018-10-14 05:56:00",13.6,11.8,1.4,0.0,0,1003.9,0,0,"",89
"2018-10-14 05:57:00",13.6,11.8,1.4,0.0,0,1003.9,0,0,"",89
"2018-10-14 05:58:00",13.6,11.8,1.4,0.0,0,1003.9,0,0,"",89
"2018-10-14 05:59:00",13.6,11.8,1.4,0.0,0,1003.9,0,0,"",89
"2018-10-14 06:00:00",13.6,11.8,1.4,0.0,0,1003.9,0,0,"",89
"2018-10-14 06:01:00",13.6,12.0,1.4,0.0,0,1003.9,0,0,"",90
"2018-10-14 06:02:00",13.6,12.0,1.4,0.0,0,1003.9,0,0,"",90
"2018-10-14 06:03:00",13.5,11.9,1.4,0.0,0,1003.9,0,0,"",90
"2018-10-14 06:04:00",13.5,11.9,1.4,0.0,0,1003.9,0,0,"",90
"2018-10-14 06:05:00",13.5,11.9,1.4,0.0,0,1003.9,0,0,"",90
"2018-10-14 06:06:00",13.5,11.9,1.4,0.0,0,1003.8,0,0,"",90
"2018-10-14 06:07:00",13.5,11.9,1.6,0.0,0,1003.7,0,0,"",90
"2018-10-14 06:08:00",13.5,11.9,1.6,0.0,0,1003.7,0,0,"",90
"2018-10-14 06:09:00",13.5,11.9,1.6,0.0,0,1003.7,0,0,"",90
"2018-10-14 06:10:00",13.4,11.8,1.6,0.0,0,1003.7,0,0,"",90
"2018-10-14 06:11:00",13.4,11.8,1.6,0.0,0,1003.8,0,0,"",90
"2018-10-14 06:12:00",13.4,11.8,1.6,0.0,0,1003.8,0,0,"",90
"2018-10-14 06:13:00",13.4,11.8,1.6,0.0,0,1003.9,0,0,"",90
"2018-10-14 06:14:00",13.4,11.8,1.6,0.0,0,1003.9,0,0,"",90
"2018-10-14 06:15:00",13.4,11.8,1.8,0.0,0,1003.9,0,0,"",90
"2018-10-14 06:16:00",13.4,11.8,1.8,0.0,0,1003.8,0,0,"",90
"2018-10-14 06:17:00",13.4,11.8,1.8,0.0,0,1003.7,0,0,"",90
"2018-10-14 06:18:00",13.4,11.6,2.0,0.0,0,1003.6,0,0,"",89
"2018-10-14 06:19:00",13.4,11.6,2.0,0.0,0,1003.5,0,0,"",89
"2018-10-14 06:20:00",13.4,11.6,2.0,0.0,0,1003.5,0,0,"",89
"2018-10-14 06:21:00",13.4,11.6,2.2,0.0,0,1003.5,0,0,"",89
"2018-10-14 06:22:00",13.4,11.6,2.2,0.0,0,1003.5,0,0,"",89
"2018-10-14 06:23:00",13.4,11.8,2.2,0.0,0,1003.5,0,0,"",90
"2018-10-14 06:24:00",13.4,11.8,2.2,0.0,0,1003.6,0,0,"",90
"2018-10-14 06:25:00",13.4,11.8,2.2,0.0,0,1003.7,0,0,"",90
"2018-10-14 06:26:00",13.3,11.7,2.2,0.0,0,1003.9,0,0,"",90
"2018-10-14 06:27:00",13.3,11.7,2.2,0.0,0,1004.0,0,0,"",90
"2018-10-14 06:28:00",13.3,11.7,2.4,0.0,0,1004.1,0,0,"",90
"2018-10-14 06:29:00",13.3,11.7,2.4,0.0,0,1004.2,0,0,"",90
"2018-10-14 06:30:00",13.3,11.7,2.4,0.0,0,1004.3,0,0,"",90
"2018-10-14 06:31:00",13.3,11.7,2.4,0.0,0,1004.2,0,0,"",90
"2018-10-14 06:32:00",13.3,11.7,2.4,0.0,0,1004.2,0,0,"",90
"2018-10-14 06:33:00",13.3,11.7,2.4,0.0,0,1004.2,0,0,"",90
"2018-10-14 06:34:00",13.3,11.7,2.4,0.0,0,1004.1,0,0,"",90
"2018-10-14 06:35:00",13.3,11.7,2.6,0.0,0,1004.0,0,0,"",90
"2018-10-14 06:36:00",13.3,11.7,2.8,0.0,0,1003.9,0,0,"",90
"2018-10-14 06:37:00",13.3,11.7,3.0,0.0,0,1003.9,0,0,"",90
"2018-10-14 06:38:00",13.3,11.7,3.4,0.0,0,1003.9,0,0,"",90
"2018-10-14 06:39:00",13.3,11.7,3.4,0.0,0,1003.9,0,0,"",90
"2018-10-14 06:40:00",13.3,11.7,3.4,0.0,0,1003.9,0,0,"",90
"2018-10-14 06:41:00",13.3,11.7,3.6,0.0,0,1003.8,0,0,"",90
"2018-10-14 06:42:00",13.3,11.7,3.6,0.0,0,1003.9,0,0,"",90
"2018-10-14 06:43:00",13.3,11.7,3.6,0.0,0,1003.9,0,0,"",90
"2018-10-14 06:44:00",13.3,11.7,3.6,0.0,0,1003.9,0,0,"",90